Home > Weather > Jequié > Past weeks

Flag for Brazil Weather for the Past 2 Weeks in Jequié, Bahia, Brazil

Now
82 °F

Passing clouds.


Feels Like: 88 °F
Forecast: N/A
Wind: 13 mph from East

Location: Salvador Aeroporto

Current Time: Feb 14, 2016 at 8:27:54 PM

Latest Report: Feb 14, 2016 at 7:00 PM


Visibility: N/A

Pressure: 29.89 "Hg

Humidity: 74%

Dew point: 73 °F

Location of JequiéLocation

Historic Weather in Jequié — Graph

°F

Jequié Temperature Yesterday

Maximum temperature yesterday: 90 °F (at 12:00 PM)
Minimum temperature yesterday: 77 °F (at 5:00 AM)
Average temperature yesterday: 84 °F

High & Low Weather Summary for the Past Weeks

 TemperatureHumidityPressure
High91 °F (Feb 11, 10:00 AM)89% (Feb 2, 9:00 AM)30.07 "Hg (Feb 2, 9:00 AM)
Low75 °F (Feb 2, 5:00 AM)49% (Feb 8, 11:00 AM)29.83 "Hg (Feb 11, 5:00 PM)
Average83 °F70%29.96 "Hg
* Reported Jan 30 7:00 PM — Feb 14 7:00 PM, Jequié, Weather by CustomWeather, © 2016

Note: Actual official high and low records may vary slightly from our data, if they occured in-between our weather recording intervals... More about our weather records

Advertising

Jequié Weather History for the Previous 24 Hours

 ConditionsComfort  
Time TempWeatherWind HumidityBarometerVisibility
7:00 PM
Sun, Feb 14
82 °FPassing clouds.13 mph74%29.89 "HgN/A
6:00 PM84 °FPassing clouds.15 mph70%29.86 "HgN/A
5:00 PM81 °FPassing clouds.17 mph79%29.86 "HgN/A
4:00 PM88 °FPassing clouds.18 mph62%29.86 "HgN/A
3:00 PM90 °FScattered clouds.18 mph59%29.86 "HgN/A
2:00 PM90 °FScattered clouds.16 mph59%29.89 "HgN/A
1:00 PM86 °FScattered clouds.17 mph66%29.92 "HgN/A
12:00 PM88 °FScattered clouds.14 mph62%29.92 "HgN/A
11:00 AM86 °FScattered clouds.17 mph66%29.95 "HgN/A
10:00 AM88 °FScattered clouds.13 mph66%29.95 "HgN/A
9:00 AM86 °FBroken clouds.8 mph70%29.95 "HgN/A
8:00 AM81 °FBroken clouds.6 mph84%29.95 "HgN/A
7:00 AM81 °FBroken clouds.3 mph84%29.95 "HgN/A
6:00 AM79 °FPassing clouds.1 mph84%29.92 "HgN/A
5:00 AM79 °FPassing clouds.3 mph84%29.92 "HgN/A
4:00 AM79 °FPassing clouds.3 mph84%29.92 "HgN/A
3:00 AM81 °FPassing clouds.6 mph79%29.92 "HgN/A
2:00 AM82 °FPassing clouds.8 mph79%29.92 "HgN/A
1:00 AM82 °FPassing clouds.10 mph79%29.92 "HgN/A
12:00 AM82 °FPassing clouds.10 mph79%29.92 "HgN/A
11:00 PM
Sat, Feb 13
82 °FPassing clouds.9 mph79%29.95 "HgN/A
10:00 PM82 °FPassing clouds.13 mph79%29.95 "HgN/A
9:00 PM82 °FPassing clouds.9 mph79%29.92 "HgN/A
8:00 PM82 °FPassing clouds.12 mph79%29.92 "HgN/A
Weather by CustomWeather, © 2016

See weather overviewHow to use our weather pages